Monett, MO

7:27 AM CDT on October 22, 2019 (GMT -0500)
Monett

Weather History for KHFJ - September, 2019

Change the Weather History Date:

Sunday, September 15, 2019

  Actual Average (WUND) Record (WUND)
Temperature  
Mean Temperature 78 °F -  
Max Temperature 89 °F - - (-1)
Min Temperature 68 °F - - (-1)
Cooling Degree Days 14    
Growing Degree Days 28 (Base 50)    
Moisture  
Dew Point 67 °F    
Average Humidity 69    
Maximum Humidity 88    
Minimum Humidity 43    
Precipitation  
Precipitation 0.00 in - - ()
Sea Level Pressure  
Sea Level Pressure 30.13 in    
Wind  
Wind Speed 6 mph ()    
Max Wind Speed 13 mph    
Max Gust Speed 17 mph    
Visibility 10.0 miles    
Events      
Averages and records for this station are not official NWS values.
T = Trace of Precipitation, MM = Missing Value Source: Averaged Metar Reports

Daily Weather History Graph

Daily Weather History Graph

Search for Another Location

Airport or City:

Astronomy

Sep. 15, 2019 Rise Set
Actual Time 6:58 AM CDT 7:23 PM CDT
Civil Twilight 6:32 AM CDT 7:49 PM CDT
Nautical Twilight 6:01 AM CDT 8:20 PM CDT
Astronomical Twilight 5:30 AM CDT 8:51 PM CDT
Moon 8:33 PM CDT (9/15) 8:08 AM CDT (9/15)
Length of Visible Light 13h 17m
Length of Day
12h 25m
Full, 98% of the Moon is Illuminated
Sep 15
Full
Sep 21
Last Quarter
Sep 28
New
Oct 5
First Quarter
Oct 13
Full

Hourly Weather History & Observations

Time (CDT) Temp. Heat Index Dew Point Humidity Pressure Visibility Wind Dir Wind Speed Gust Speed Precip Events Conditions
12:15 AM 71.6 °F - 68.0 °F 88% 30.17 in 10.0 mi SE 5.8 mph - N/A   Clear
12:35 AM 71.6 °F - 68.0 °F 88% 30.17 in 10.0 mi SE 4.6 mph - N/A   Clear
12:55 AM 71.6 °F - 68.0 °F 88% 30.17 in 10.0 mi SSE 5.8 mph - N/A   Clear
1:15 AM 71.6 °F - 68.0 °F 88% 30.17 in 10.0 mi SSE 5.8 mph - N/A   Clear
1:35 AM 71.6 °F - 66.2 °F 83% 30.17 in 10.0 mi SSE 6.9 mph - N/A   Clear
1:55 AM 71.6 °F - 66.2 °F 83% 30.17 in 10.0 mi SSE 6.9 mph - N/A   Clear
2:15 AM 71.6 °F - 66.2 °F 83% 30.16 in 10.0 mi SSE 6.9 mph - N/A   Clear
2:35 AM 71.6 °F - 64.4 °F 78% 30.15 in 10.0 mi SSE 6.9 mph - N/A   Clear
2:55 AM 69.8 °F - 64.4 °F 83% 30.15 in 10.0 mi SSE 6.9 mph - N/A   Clear
3:15 AM 71.6 °F - 64.4 °F 78% 30.15 in 10.0 mi SSE 5.8 mph - N/A   Clear
3:35 AM 71.6 °F - 64.4 °F 78% 30.15 in 10.0 mi SSE 5.8 mph - N/A   Clear
3:55 AM 69.8 °F - 64.4 °F 83% 30.14 in 10.0 mi SSE 5.8 mph - N/A   Clear
4:15 AM 69.8 °F - 64.4 °F 83% 30.14 in 10.0 mi South 5.8 mph - N/A   Clear
4:35 AM 69.8 °F - 64.4 °F 83% 30.13 in 10.0 mi South 8.1 mph - N/A   Clear
4:55 AM 69.8 °F - 64.4 °F 83% 30.13 in 10.0 mi South 8.1 mph - N/A   Clear
5:55 AM 69.8 °F - 64.4 °F 83% 30.14 in 10.0 mi South 5.8 mph - N/A   Clear
6:15 AM 69.8 °F - 64.4 °F 83% 30.14 in 10.0 mi SSE 4.6 mph - N/A   Clear
6:35 AM 68.0 °F - 64.4 °F 88% 30.15 in 10.0 mi SSE 5.8 mph - N/A   Clear
6:55 AM 68.0 °F - 64.4 °F 88% 30.15 in 10.0 mi South 4.6 mph - N/A   Clear
7:15 AM 68.0 °F - 64.4 °F 88% 30.15 in 10.0 mi SSE 4.6 mph - N/A   Clear
7:35 AM 68.0 °F - 64.4 °F 88% 30.15 in 10.0 mi South 5.8 mph - N/A   Clear
7:55 AM 69.8 °F - 66.2 °F 88% 30.15 in 10.0 mi South 4.6 mph - N/A   Clear
8:15 AM 71.6 °F - 66.2 °F 83% 30.15 in 10.0 mi South 5.8 mph - N/A   Clear
9:15 AM 77.0 °F - 68.0 °F 74% 30.16 in 10.0 mi South 9.2 mph - N/A   Clear
9:35 AM 78.8 °F - 68.0 °F 69% 30.16 in 10.0 mi South 9.2 mph - N/A   Clear
10:15 AM 80.6 °F 83.2 °F 68.0 °F 65% 30.16 in 10.0 mi SSW 9.2 mph - N/A   Clear
10:35 AM 82.4 °F 85.4 °F 68.0 °F 62% 30.17 in 10.0 mi SSW 12.7 mph - N/A   Clear
10:55 AM 84.2 °F 87.3 °F 68.0 °F 58% 30.17 in 10.0 mi SW 12.7 mph - N/A   Clear
11:15 AM 84.2 °F 87.3 °F 68.0 °F 58% 30.17 in 10.0 mi SSW 12.7 mph - N/A   Clear
11:35 AM 86.0 °F 89.4 °F 68.0 °F 55% 30.17 in 10.0 mi SW 10.4 mph - N/A   Clear
11:55 AM 87.8 °F 91.4 °F 68.0 °F 52% 30.17 in 10.0 mi SW 11.5 mph - N/A   Clear
12:15 PM 87.8 °F 91.4 °F 68.0 °F 52% 30.16 in 10.0 mi SW 11.5 mph - N/A   Clear
12:35 PM 87.8 °F 91.4 °F 68.0 °F 52% 30.16 in 10.0 mi WSW 10.4 mph - N/A   Clear
12:55 PM 87.8 °F 91.4 °F 68.0 °F 52% 30.16 in 10.0 mi WSW 9.2 mph 17.3 mph N/A   Clear
1:15 PM 87.8 °F 91.4 °F 68.0 °F 52% 30.15 in 10.0 mi SW 8.1 mph - N/A   Clear
1:35 PM 89.6 °F 93.4 °F 68.0 °F 49% 30.15 in 10.0 mi SW 8.1 mph - N/A   Clear
1:55 PM 89.6 °F 93.4 °F 68.0 °F 49% 30.14 in 10.0 mi SW 6.9 mph - N/A   Clear
2:15 PM 89.6 °F 93.4 °F 68.0 °F 49% 30.13 in 10.0 mi SSW 5.8 mph - N/A   Clear
2:35 PM 89.6 °F 92.2 °F 66.2 °F 46% 30.12 in 10.0 mi West 8.1 mph - N/A   Clear
2:55 PM 89.6 °F 92.2 °F 66.2 °F 46% 30.12 in 10.0 mi WSW 5.8 mph - N/A   Clear
3:15 PM 89.6 °F 92.2 °F 66.2 °F 46% 30.11 in 10.0 mi West 3.5 mph - N/A   Clear
3:35 PM 89.6 °F 92.2 °F 66.2 °F 46% 30.10 in 10.0 mi SW 9.2 mph - N/A   Clear
3:55 PM 89.6 °F 92.2 °F 66.2 °F 46% 30.10 in 10.0 mi WSW 5.8 mph - N/A   Clear
4:15 PM 89.6 °F 91.1 °F 64.4 °F 43% 30.09 in 10.0 mi West 8.1 mph - N/A   Clear
4:35 PM 89.6 °F 92.2 °F 66.2 °F 46% 30.09 in 10.0 mi West 5.8 mph - N/A   Clear
5:15 PM 89.6 °F 91.1 °F 64.4 °F 43% 30.08 in 10.0 mi WSW 6.9 mph - N/A   Clear
5:35 PM 89.6 °F 91.1 °F 64.4 °F 43% 30.08 in 10.0 mi West 3.5 mph - N/A   Clear
5:55 PM 89.6 °F 92.2 °F 66.2 °F 46% 30.08 in 10.0 mi SW 5.8 mph - N/A   Clear
6:15 PM 87.8 °F 91.4 °F 68.0 °F 52% 30.08 in 10.0 mi WSW 3.5 mph - N/A   Clear
6:35 PM 87.8 °F 90.4 °F 66.2 °F 49% 30.08 in 10.0 mi Calm Calm - N/A   Clear
6:55 PM 86.0 °F 89.4 °F 68.0 °F 55% 30.08 in 10.0 mi Calm Calm - N/A   Clear
7:15 PM 84.2 °F 87.3 °F 68.0 °F 58% 30.07 in 10.0 mi Calm Calm - N/A   Clear
7:35 PM 80.6 °F 83.2 °F 68.0 °F 65% 30.07 in 10.0 mi Calm Calm - N/A   Clear
7:55 PM 78.8 °F - 68.0 °F 69% 30.07 in 10.0 mi Calm Calm - N/A   Clear
8:15 PM 78.8 °F - 68.0 °F 69% 30.08 in 10.0 mi Calm Calm - N/A   Clear
8:35 PM 77.0 °F - 69.8 °F 78% 30.08 in 10.0 mi Calm Calm - N/A   Clear
8:55 PM 77.0 °F - 68.0 °F 74% 30.09 in 10.0 mi Calm Calm - N/A   Clear
9:15 PM 75.2 °F - 68.0 °F 78% 30.09 in 10.0 mi SE 3.5 mph - N/A   Clear
9:35 PM 77.0 °F - 68.0 °F 74% 30.10 in 10.0 mi Calm Calm - N/A   Clear
9:55 PM 73.4 °F - 68.0 °F 83% 30.10 in 10.0 mi SE 3.5 mph - N/A   Clear
10:15 PM 73.4 °F - 68.0 °F 83% 30.11 in 10.0 mi SE 4.6 mph - N/A   Clear
10:35 PM 73.4 °F - 68.0 °F 83% 30.11 in 10.0 mi SE 3.5 mph - N/A   Clear
10:55 PM 73.4 °F - 68.0 °F 83% 30.11 in 10.0 mi Calm Calm - N/A   Clear
11:15 PM 73.4 °F - 68.0 °F 83% 30.11 in 10.0 mi Calm Calm - N/A   Clear
11:35 PM 71.6 °F - 68.0 °F 88% 30.10 in 10.0 mi Calm Calm - N/A   Clear
11:55 PM 73.4 °F - 66.2 °F 78% 30.10 in 10.0 mi SE 3.5 mph - N/A   Clear